{"data":{"norad_id":67497,"epoch":"2026-09-19T03:08:37.440960Z","epoch_age_seconds":190536,"freshness":"STALE","line1":"1 67497U 26012E   26262.13098890  .00010951  00000+0  40678-3 0  9993","line2":"2 67497  43.0009 302.1770 0000587 251.8298 108.2490 15.27586273 37343","mean_motion":15.27586273,"eccentricity":5.87e-5,"inclination_deg":43.0009,"raan_deg":302.177,"arg_perigee_deg":251.8298,"mean_anomaly_deg":108.249,"bstar":0.00040678,"rev_number":3734,"period_min":94.266361609286,"perigee_km":482.62756196399,"apogee_km":483.43306300648,"semimajor_km":6861.1673124852005,"source":"CELESTRAK","updated_at":"2026-09-20T09:00:43.556781Z"}}